GFSFLT2_sfc_dewp_057.txt.gz
Dewpoint
43 42 42 41 41 41 41 41 43 43 45 45 45 44 44 45 45 45 45 45 47 47 47 47 46 47 45
41 41 40 39 39 38 38 38 39 40 41 42 42 42 43 43 42 42 43 42 43 43 43 43 43 43 44
40 41 40 38 37 38 37 37 38 35 34 35 37 38 38 39 40 40 41 42 42 42 41 41 41 41 41
39 39 39 37 36 36 34 36 33 28 29 29 30 31 32 34 35 34 34 35 36 37 38 38 37 38 39
38 37 36 34 32 31 29 28 29 29 27 27 26 27 27 27 30 30 30 31 32 34 35 36 36 35 35
34 32 30 27 25 27 27 28 27 28 25 23 24 23 22 23 27 28 29 30 30 30 31 31 31 32 34
27 25 24 26 29 30 28 27 25 25 24 22 22 21 24 21 24 27 30 31 32 32 33 33 34 34 35
28 28 28 29 28 27 27 26 26 24 23 24 23 22 25 26 28 27 31 31 33 34 34 34 34 35 35
25 24 24 24 25 26 28 27 24 17 21 22 24 23 24 24 26 26 30 28 29 30 32 34 34 34 33
22 21 20 19 23 22 26 25 26 26 23 25 25 24 25 26 24 25 27 27 27 28 29 31 32 33 33
16 15 17 21 22 23 24 27 25 26 26 26 26 26 26 26 26 25 26 25 26 27 29 29 30 31 31
14 14 19 25 27 27 27 27 28 26 28 27 25 26 25 23 23 25 26 27 27 27 28 30 31 31 31
16 24 27 28 26 26 29 28 27 27 27 24 26 26 26 23 22 23 24 25 26 26 27 27 27 29 27
21 21 22 26 26 27 25 26 25 25 28 26 25 26 24 24 24 23 24 23 25 26 27 28 27 27 27
21 21 20 23 24 26 25 24 22 22 23 26 27 26 25 23 22 22 22 23 25 26 27 26 26 27 27
24 24 23 23 23 24 23 22 21 22 22 23 22 21 23 24 26 22 23 24 25 27 27 26 24 26 27
23 22 22 22 22 21 21 21 20 21 21 21 20 22 20 18 22 28 24 24 24 24 25 26 25 26 27

GFSFLT2_sfc_dewp_060.txt.gz
Dewpoint
39 39 39 38 39 39 39 39 41 42 44 44 45 45 45 45 45 46 47 47 48 48 48 48 49 50 48
38 37 39 37 36 37 38 38 38 39 39 40 40 41 42 43 43 43 43 43 43 43 45 45 44 44 44
37 39 38 37 36 34 35 35 38 36 32 32 33 35 39 40 39 40 42 42 42 42 41 41 42 42 42
37 37 37 37 32 31 29 32 29 26 28 29 28 30 31 32 35 34 35 36 37 38 39 39 38 38 39
36 35 35 32 27 27 25 26 26 27 25 24 24 25 24 27 29 30 29 31 32 33 35 36 37 37 36
34 30 25 24 26 26 25 22 22 25 22 22 22 20 21 21 25 26 29 30 31 30 30 31 32 32 32
24 23 24 25 25 25 24 22 23 24 21 20 22 21 24 23 25 27 29 30 32 33 33 33 33 33 34
27 26 26 27 26 26 25 24 25 24 21 19 22 22 23 24 28 28 31 31 31 32 33 34 35 35 35
25 23 22 22 22 24 22 21 21 18 22 21 23 23 23 25 26 26 29 29 28 29 30 31 34 35 34
21 22 19 18 21 22 22 15 18 19 23 21 24 24 20 26 26 26 26 28 28 28 29 30 30 31 31
17 14 15 19 21 23 23 18 15 16 26 21 15 20 18 21 25 25 25 25 26 27 29 30 30 31 29
14 13 17 20 22 23 26 24 23 21 24 21 13 15 20 22 20 24 24 24 24 24 25 28 30 30 32
15 19 21 22 20 21 23 25 24 25 27 18 18 14 24 22 21 21 22 23 24 23 23 24 24 25 25
20 20 22 20 21 22 19 21 19 21 25 24 20 19 18 23 23 21 21 18 20 22 24 25 26 27 26
21 20 20 21 23 21 21 18 15 15 19 22 25 24 23 16 20 22 21 21 22 23 22 26 28 28 26
20 19 19 18 18 19 17 15 13 16 17 17 16 15 17 22 27 22 22 22 22 23 25 26 25 26 26
14 13 13 14 20 16 15 15 14 14 14 13 10 10 18 18 21 24 22 22 23 25 25 24 23 24 26

GFSFLT2_sfc_dewp_063.txt.gz
Dewpoint
41 39 39 37 38 39 39 38 39 40 42 43 43 43 45 45 45 46 48 49 50 50 50 49 49 50 50
40 34 36 37 34 35 37 38 37 36 37 39 40 40 41 42 43 43 44 44 44 46 47 46 46 45 46
37 37 38 36 32 33 34 34 37 33 32 32 33 33 36 40 40 40 40 42 43 43 42 41 42 42 43
36 37 37 36 32 30 27 28 28 25 28 30 30 30 30 31 34 34 34 35 37 38 39 39 38 38 39
36 36 35 33 27 26 25 25 26 24 23 22 23 23 24 29 30 30 29 30 31 33 35 36 37 37 37
34 32 25 24 26 25 25 22 21 25 21 20 21 20 22 21 25 27 28 30 31 31 30 31 32 32 33
24 23 24 25 25 25 24 22 23 24 21 17 22 21 23 23 28 27 30 29 31 32 33 34 34 34 34
26 26 27 27 26 26 24 24 24 23 21 18 22 23 23 24 28 28 31 30 29 30 31 32 34 35 35
27 25 23 24 25 23 23 19 20 20 23 21 23 24 24 26 25 28 28 29 29 28 29 30 31 34 34
20 23 20 18 22 22 22 13 17 17 23 21 23 23 19 24 26 26 25 28 29 29 30 30 31 29 29
18 15 15 19 21 23 24 17 12 14 26 20 12 18 16 19 23 24 24 25 25 25 29 31 31 31 28
15 13 16 19 22 23 25 23 23 20 23 18 12 13 9 12 18 22 23 23 23 24 23 26 30 31 31
15 19 20 22 20 20 22 24 22 24 26 16 16 9 12 10 14 20 22 22 23 20 21 21 23 23 23
18 18 22 18 20 21 18 20 17 20 24 21 17 15 10 18 18 21 19 17 19 20 22 24 25 26 25
20 20 20 22 23 20 20 16 15 15 18 21 24 21 20 14 16 21 21 21 21 21 19 21 24 26 26
20 19 19 18 18 17 15 14 13 14 14 16 15 14 16 20 26 22 21 21 21 20 21 22 23 25 25
18 16 13 12 19 15 14 14 13 12 12 11 6 6 6 15 20 26 21 17 16 23 24 24 22 23 24

GFSFLT2_sfc_dewp_069.txt.gz
Dewpoint
41 40 39 38 38 38 37 37 38 40 40 39 40 43 44 45 46 47 48 49 51 52 53 53 53 53 53
40 38 39 38 36 35 36 37 36 36 35 35 36 38 41 42 42 44 44 45 45 46 47 48 49 49 50
37 39 38 37 35 32 33 29 29 29 32 34 34 33 34 38 39 39 40 41 43 43 43 43 43 44 44
37 37 37 36 34 30 27 27 26 23 26 27 29 29 32 33 33 33 33 35 37 39 39 40 40 40 40
36 37 36 34 31 27 25 25 24 25 22 21 22 22 24 28 29 29 30 31 32 32 34 35 36 36 37
35 34 30 27 25 25 25 24 22 25 22 18 22 22 23 25 29 29 31 31 32 33 33 32 32 32 32
32 30 26 26 26 25 24 24 22 24 22 16 22 22 23 23 30 29 32 32 33 33 34 34 35 34 34
26 25 26 26 26 26 24 23 24 23 21 19 22 22 24 25 31 29 31 31 30 30 31 32 32 33 36
30 31 32 31 28 26 25 22 21 20 23 21 22 22 24 25 26 32 31 31 30 30 30 32 32 33 31
24 22 20 20 27 22 25 19 22 21 23 22 23 22 18 23 25 25 24 29 28 29 29 31 31 29 28
19 16 16 20 22 22 23 23 16 19 25 21 14 19 16 18 21 23 24 23 23 24 26 26 28 28 26
18 14 17 22 25 25 25 24 24 22 25 20 13 14 8 11 17 21 22 22 23 23 22 25 26 27 28
18 21 23 25 25 23 23 24 23 24 25 17 17 9 10 10 12 16 21 21 21 18 20 20 21 22 20
20 18 23 23 23 22 20 22 19 21 25 23 14 12 14 13 13 14 15 14 18 17 20 21 22 23 23
22 20 20 24 24 21 21 18 17 17 19 22 24 20 18 15 17 20 20 18 18 17 18 18 21 22 23
23 22 21 22 22 20 17 16 15 15 14 16 15 15 16 20 24 20 17 16 16 18 19 19 20 21 23
22 21 20 20 22 19 18 19 16 16 12 9 3 4 6 13 20 26 21 13 14 18 19 19 19 21 22

GFSFLT2_sfc_dewp_072.txt.gz
Dewpoint
41 41 40 40 39 38 38 37 38 40 40 38 40 42 43 44 46 47 48 49 51 52 55 55 55 55 55
39 39 39 38 37 36 37 36 35 35 35 35 36 38 41 41 42 44 45 46 46 47 48 50 51 53 53
38 39 38 37 35 35 33 31 28 30 33 35 35 34 35 37 38 40 40 42 43 43 44 45 45 46 47
38 37 37 36 35 32 29 27 26 24 26 28 29 30 34 33 32 31 33 35 38 40 40 41 41 41 42
36 37 36 34 33 29 27 25 24 25 22 22 22 22 25 27 29 31 31 32 32 34 35 36 37 37 38
36 35 33 31 27 26 25 24 21 25 22 19 23 22 23 25 29 30 31 32 34 34 34 33 33 33 33
34 32 29 28 26 25 25 24 22 24 22 15 22 21 24 24 31 31 33 34 34 33 34 35 36 35 35
29 28 26 27 26 26 24 24 24 23 21 19 22 22 24 26 31 32 31 32 31 32 32 33 33 35 36
31 31 31 31 29 26 25 23 21 20 23 21 22 22 24 25 27 32 31 31 31 32 33 33 32 32 31
22 22 22 28 30 24 26 21 23 22 23 23 23 22 21 23 25 24 25 29 29 29 29 30 31 29 28
21 17 17 22 22 22 24 24 22 24 26 23 19 21 18 20 20 23 24 23 23 24 25 26 28 28 26
19 15 17 22 24 25 25 25 25 24 27 22 15 16 10 14 18 20 21 22 23 23 23 25 25 26 27
20 21 22 24 26 26 26 25 24 25 26 18 17 10 12 12 15 17 21 21 22 19 21 21 21 22 20
21 20 24 24 24 24 22 22 21 23 26 22 17 14 12 13 13 12 14 15 18 18 20 21 22 23 23
22 20 20 23 24 23 22 21 20 21 22 23 24 20 17 13 15 18 19 17 17 16 18 17 21 22 23
23 22 21 22 22 22 20 20 20 19 19 20 18 14 15 19 23 18 17 16 16 18 19 18 19 20 22
24 23 21 20 23 20 20 20 19 18 16 14 4 6 7 13 21 26 16 14 14 18 19 18 19 21 22

GFSFLT2_sfc_dewp_075.txt.gz
Dewpoint
42 42 42 42 41 39 40 39 41 40 40 39 41 42 43 44 46 47 48 49 51 53 56 57 58 58 58
40 40 40 40 39 37 37 36 35 37 36 36 37 40 41 41 42 44 45 46 47 48 50 53 54 54 55
39 40 39 38 36 36 34 33 27 32 34 35 35 35 37 37 39 39 41 43 43 44 45 47 48 50 51
39 38 38 37 36 34 30 30 29 24 26 29 30 32 34 34 31 32 33 37 40 41 42 42 43 44 45
38 38 36 35 34 32 32 28 26 26 24 23 22 23 28 29 30 31 31 32 33 36 38 39 39 40 40
38 37 36 34 30 30 29 28 27 27 24 20 23 23 25 28 30 31 31 32 33 33 34 34 34 35 35
36 35 33 31 31 30 28 27 22 25 23 18 22 22 25 23 32 32 33 34 34 34 36 36 35 35 35
33 32 31 31 31 31 28 25 24 23 22 21 22 22 24 29 32 33 32 31 32 33 33 34 35 36 37
30 31 32 31 29 26 26 26 21 20 23 20 22 22 24 28 30 32 31 31 32 33 34 32 33 32 32
28 28 30 31 30 26 28 28 25 23 23 25 22 22 25 24 26 26 29 30 31 29 31 29 31 29 29
21 18 21 26 26 22 25 29 27 27 25 27 27 25 25 25 22 24 24 25 24 24 25 27 29 28 29
19 17 17 22 24 25 25 26 27 29 30 29 28 26 25 23 21 20 23 24 25 25 25 26 24 26 27
19 21 22 23 28 27 28 27 27 28 28 27 27 23 25 25 23 22 23 22 25 26 26 26 25 25 26
21 21 22 25 25 26 26 26 26 25 28 26 26 25 25 24 25 24 24 26 25 25 26 26 24 23 25
22 20 19 22 23 25 25 25 24 24 24 26 26 25 26 25 23 21 20 22 25 26 24 24 24 25 24
26 25 22 23 24 24 25 25 24 23 23 24 25 23 22 22 25 22 22 23 24 25 25 24 24 25 22
28 27 26 25 25 24 24 24 24 23 23 23 23 23 20 17 19 26 23 24 24 24 25 25 24 25 24

GFSFLT2_sfc_dewp_078.txt.gz
Dewpoint
45 44 44 43 42 40 41 41 42 40 41 39 41 42 43 44 46 47 48 48 50 53 56 58 58 59 60
42 41 41 42 40 39 38 37 38 39 37 37 37 40 41 41 42 44 44 45 47 49 51 54 56 59 59
41 41 40 38 37 38 36 34 29 37 36 36 35 35 38 38 38 38 41 43 44 45 46 48 50 53 55
41 40 39 38 37 35 33 33 29 25 28 30 30 34 34 33 31 32 34 37 40 42 43 44 46 47 48
40 39 38 36 35 34 34 31 29 31 30 26 25 24 30 29 30 32 32 32 34 37 39 40 41 42 42
39 38 37 36 34 32 32 30 31 30 28 25 23 23 24 29 31 31 31 33 33 34 35 35 36 37 37
38 37 36 34 34 33 33 34 33 26 26 22 22 22 25 22 32 32 32 35 35 35 35 35 35 35 34
36 36 35 34 35 35 35 32 26 24 25 24 21 21 24 29 32 33 32 32 33 34 34 35 37 37 37
31 32 33 34 33 31 31 29 24 21 23 21 21 22 24 29 32 33 32 31 32 34 34 33 34 32 33
31 32 32 32 30 29 31 34 27 25 22 26 22 22 25 26 29 29 32 33 33 31 32 30 31 29 29
24 25 28 30 27 24 27 33 31 30 25 30 30 27 30 27 25 26 26 28 26 27 26 27 30 29 29
20 17 18 24 26 26 26 28 28 32 29 33 33 31 31 26 24 23 25 26 27 26 27 26 28 26 27
20 22 25 26 31 29 30 29 29 30 30 31 31 29 30 30 27 24 23 24 27 29 29 28 27 26 28
21 23 23 27 25 27 27 27 28 27 29 30 30 29 29 27 28 28 27 29 27 27 29 28 26 25 26
22 21 19 22 23 27 27 27 27 26 26 27 28 28 29 29 27 25 23 23 27 29 27 26 26 27 26
28 27 24 25 24 26 27 27 26 25 25 27 27 26 25 26 28 25 22 24 26 28 27 26 27 29 25
32 32 31 29 27 25 25 26 26 26 26 27 27 26 24 20 23 27 26 26 26 26 26 27 28 29 26

GFSFLT2_sfc_dewp_084.txt.gz
Dewpoint
45 44 45 44 43 42 43 43 44 43 43 41 42 42 43 43 43 44 45 47 48 50 53 54 57 58 58
44 42 43 43 42 40 40 39 40 43 42 40 39 41 41 41 41 42 43 45 46 47 50 52 53 58 58
41 41 41 40 38 38 38 36 35 43 39 38 37 37 39 37 35 35 38 41 43 45 46 48 50 53 58
42 40 40 39 38 37 35 35 32 34 35 34 34 34 36 33 32 32 34 36 40 42 44 45 46 49 52
40 40 38 37 36 37 36 34 34 32 31 31 30 29 34 32 30 32 32 33 36 39 41 42 43 44 47
40 39 39 37 36 35 33 32 32 33 31 31 28 26 26 29 31 31 31 32 34 36 37 38 39 40 41
40 39 38 37 35 34 33 33 34 32 31 29 24 23 24 26 31 32 33 35 35 35 36 37 37 37 38
39 38 37 36 36 35 34 32 27 26 28 26 22 23 24 26 31 34 34 34 35 36 38 38 38 38 39
33 37 37 38 37 36 33 31 28 25 24 23 22 23 24 29 32 34 32 33 34 36 36 36 36 37 36
32 33 35 36 38 35 33 32 29 23 23 23 22 23 21 28 30 30 32 33 36 35 35 33 32 31 31
30 29 30 29 27 29 33 33 26 21 25 24 17 21 22 23 28 28 30 31 30 31 30 27 30 30 30
26 27 26 25 24 25 27 27 27 26 26 26 20 20 17 20 23 26 26 28 27 27 28 27 30 28 26
24 23 24 25 25 24 25 27 26 27 28 22 20 18 19 18 21 22 24 26 27 27 28 28 28 28 26
23 24 26 24 23 23 21 22 20 26 27 23 19 19 18 20 20 20 22 23 26 27 28 27 28 28 27
24 25 26 26 26 24 23 21 18 21 24 24 25 24 22 21 20 23 25 25 26 26 24 22 24 26 26
25 25 24 24 24 25 21 19 18 20 20 21 20 18 20 23 27 21 21 21 22 25 24 17 19 24 27
26 24 23 24 25 25 22 21 19 19 19 19 17 13 11 14 23 29 18 18 23 23 22 22 19 22 27

GFSFLT2_sfc_dewp_087.txt.gz
Dewpoint
44 44 45 44 43 42 44 44 45 45 44 43 43 43 43 43 43 43 44 45 47 48 50 52 53 56 58
43 41 43 44 43 41 40 40 41 43 45 42 41 43 42 41 40 40 42 44 45 46 48 50 52 54 58
42 42 41 40 39 39 38 37 35 40 45 41 39 39 41 38 35 34 37 40 43 44 45 47 49 52 58
43 41 40 39 39 37 36 36 34 38 38 37 38 36 37 35 32 32 33 35 39 42 43 44 46 50 53
41 40 39 37 37 37 36 35 35 34 33 34 34 31 35 34 31 32 32 33 36 39 41 42 43 46 49
40 40 39 38 37 36 35 33 33 35 32 31 30 28 27 28 32 32 31 32 33 36 37 39 40 42 45
40 40 38 39 37 35 34 33 34 33 32 31 26 25 25 28 32 32 32 35 35 34 36 37 38 39 40
40 41 40 39 38 35 34 33 28 29 31 30 24 23 24 24 30 33 34 34 35 36 37 38 38 39 39
38 40 40 40 38 35 33 30 28 26 25 25 22 23 24 27 30 35 33 34 35 35 36 37 38 38 38
31 34 37 38 40 36 34 33 29 28 25 23 22 23 20 27 29 30 30 34 34 35 36 32 32 31 30
30 30 31 31 31 33 34 34 31 29 25 22 17 21 19 21 27 28 30 31 30 33 31 28 30 31 29
29 29 29 27 25 27 30 29 27 31 27 23 16 19 15 17 22 26 27 28 27 27 27 27 30 28 27
28 28 26 26 26 25 26 27 26 27 28 26 21 20 16 16 20 21 23 25 25 24 25 26 27 27 26
27 25 26 25 25 24 23 23 22 26 27 21 17 19 16 17 17 18 20 20 22 23 25 26 28 28 27
25 25 25 26 25 24 23 21 16 22 24 25 25 24 20 19 18 21 22 22 22 23 25 24 24 25 26
26 26 26 26 25 24 21 19 17 19 21 23 19 17 19 22 26 21 20 21 22 24 24 17 19 24 26
27 27 26 25 26 24 24 22 20 21 21 20 13 11 11 14 23 29 21 21 22 23 23 21 15 21 26

GFSFLT2_sfc_dewp_090.txt.gz
Dewpoint
45 44 44 44 44 44 46 45 45 48 47 46 43 44 44 43 43 44 44 46 46 47 48 49 52 53 53
43 42 43 43 42 41 41 41 42 44 46 45 43 44 44 42 41 40 41 42 44 45 46 47 49 52 53
42 42 41 41 40 40 39 38 37 40 44 46 42 41 43 41 37 35 35 37 40 43 44 45 47 51 53
40 40 39 40 40 39 37 37 37 38 42 40 41 39 39 39 34 32 33 34 36 40 42 43 45 49 51
41 40 39 38 38 38 37 37 36 36 36 36 36 34 33 38 33 32 33 32 33 38 40 41 43 47 49
41 40 39 37 37 36 36 34 34 35 33 33 33 32 29 32 32 33 32 32 33 34 38 39 40 44 47
42 39 37 37 35 34 35 34 35 33 32 32 29 28 27 25 33 32 32 35 35 34 36 37 39 40 43
41 39 39 38 38 37 36 34 31 32 33 31 26 25 25 24 30 31 34 34 35 36 38 39 40 40 40
42 42 43 42 39 36 34 33 29 28 29 28 24 23 24 24 28 34 35 34 35 35 35 38 38 38 38
34 37 41 41 41 38 34 34 30 28 27 27 23 23 20 25 28 29 30 34 35 34 34 33 33 30 30
31 31 32 34 37 36 35 36 32 32 27 26 23 22 18 21 27 28 29 30 32 33 32 30 32 31 28
30 30 31 29 27 29 33 33 31 33 29 24 20 22 16 15 22 26 27 27 27 28 27 28 30 30 30
30 30 30 27 26 28 28 28 28 29 28 23 22 17 16 15 19 21 24 26 25 23 24 25 25 25 24
31 30 28 26 24 24 25 26 26 27 27 24 21 20 13 16 16 17 18 19 21 22 24 24 26 27 26
30 27 27 27 26 25 25 23 22 25 26 26 25 23 20 20 17 19 22 21 20 21 23 22 25 26 27
31 30 28 27 27 25 24 24 22 21 23 25 23 18 19 21 24 22 20 21 20 23 22 16 20 26 27
31 30 29 28 27 26 24 23 22 22 21 22 17 13 11 15 22 27 19 18 21 21 21 20 19 23 25

GFSFLT2_sfc_dewp_096.txt.gz
Dewpoint
46 45 46 48 47 48 49 49 51 53 51 49 48 47 48 47 46 45 44 44 44 44 45 46 47 48 48
44 44 44 46 45 45 46 46 46 50 50 49 47 46 47 46 45 43 41 39 39 41 43 45 46 47 48
43 43 43 44 42 42 42 41 42 45 48 47 47 46 46 46 45 41 37 34 33 35 39 42 44 45 47
43 42 42 41 42 41 39 40 39 38 42 44 47 46 45 46 43 38 33 33 33 35 36 39 42 43 47
42 41 40 39 41 40 40 38 39 37 37 39 42 41 41 44 41 37 34 34 33 34 34 38 41 43 46
43 43 41 40 40 39 37 36 36 37 36 36 38 37 36 36 39 37 35 34 33 34 34 38 40 42 44
45 44 42 40 39 36 36 36 36 34 35 35 35 35 35 32 38 38 35 34 34 36 35 38 40 41 44
47 45 44 42 41 39 38 35 33 33 34 34 31 33 30 29 34 35 35 34 35 36 36 39 42 42 44
47 46 45 44 41 38 35 36 33 33 33 33 27 27 26 26 26 34 33 35 36 37 38 37 39 39 38
41 43 45 44 43 41 38 37 33 31 32 30 25 26 27 26 28 28 33 36 36 35 33 34 36 32 32
38 38 38 40 41 38 38 38 32 33 32 31 29 27 28 25 27 29 30 31 32 33 33 34 34 32 29
36 35 36 36 37 36 35 35 34 35 33 31 29 29 28 27 27 27 27 28 29 31 28 31 33 33 31
35 35 35 36 34 32 32 31 31 32 33 31 29 27 28 24 22 25 26 27 26 28 26 27 26 25 26
35 35 33 32 33 32 30 30 30 28 28 28 28 27 23 17 19 19 20 23 26 24 27 25 27 26 25
34 32 32 31 31 31 30 30 30 27 26 26 25 26 25 20 17 20 23 21 25 25 27 25 25 25 26
34 33 32 31 30 29 28 30 29 29 27 26 25 25 26 24 25 22 21 22 22 27 25 19 20 24 26
34 33 32 31 31 28 28 30 29 27 28 26 25 24 20 22 23 28 23 21 23 24 23 21 19 21 26

GFSFLT2_sfc_dewp_102.txt.gz
Dewpoint
51 50 50 51 51 54 54 55 56 56 57 56 55 54 54 54 53 52 51 50 49 49 49 48 48 48 48
51 47 48 49 51 50 50 51 53 54 55 54 54 53 53 52 51 50 49 48 48 47 46 45 45 46 46
51 47 47 46 45 45 46 47 48 52 54 53 52 52 52 51 50 49 48 46 44 42 40 41 42 43 44
50 45 45 45 46 45 42 44 45 46 51 51 51 50 50 49 48 47 46 43 41 38 38 38 38 39 42
47 44 43 42 43 45 45 44 43 43 45 47 48 48 48 49 47 46 43 41 38 38 38 38 37 38 40
47 46 46 45 46 44 43 40 39 42 43 43 46 46 46 47 47 46 42 41 39 38 37 37 36 38 41
43 45 47 47 47 44 43 43 43 41 43 41 43 43 45 45 47 45 43 41 40 38 37 37 37 40 43
44 45 46 49 48 46 45 44 39 40 43 39 40 41 43 42 45 44 42 41 40 38 37 37 38 41 43
43 44 45 47 48 46 40 38 36 35 39 36 36 36 38 39 40 43 43 42 40 38 37 37 40 38 40
38 40 43 45 47 45 43 41 40 33 36 34 33 33 33 31 33 37 40 40 39 38 38 39 37 37 39
36 38 40 42 44 45 44 43 41 39 39 36 35 34 35 29 29 30 36 36 37 37 39 37 37 37 39
33 34 37 38 40 40 40 39 39 37 38 36 34 36 32 31 30 29 33 36 37 36 37 35 36 36 34
30 33 36 38 36 33 34 34 34 35 38 34 36 35 35 33 31 30 29 33 36 37 36 35 35 35 34
34 35 37 35 35 34 34 33 33 32 32 34 34 36 34 34 34 31 34 33 35 36 36 35 34 33 34
32 32 33 34 34 34 33 33 33 31 28 29 31 32 33 33 32 31 32 32 34 35 34 33 32 32 31
30 32 31 33 33 32 32 34 33 32 28 27 29 30 30 28 31 30 30 32 32 33 33 33 32 32 29
31 31 32 32 33 32 32 32 32 32 30 28 30 32 30 29 28 30 31 32 30 29 31 32 33 33 28

GFSFLT2_sfc_dewp_105.txt.gz
Dewpoint
54 53 52 54 53 54 55 56 57 56 57 57 58 58 58 57 57 57 56 55 53 52 52 51 51 50 49
54 49 50 50 51 51 51 52 54 55 56 56 57 56 56 56 55 54 53 53 52 51 50 50 49 48 48
51 49 48 47 46 47 48 49 50 51 55 55 55 55 54 54 53 52 51 51 50 49 48 47 46 45 45
48 47 46 45 46 45 44 45 47 49 53 53 54 53 53 53 52 50 49 49 48 46 44 42 40 40 41
45 45 44 42 43 45 45 44 45 45 49 50 51 51 51 51 49 48 48 47 46 43 41 40 39 39 40
41 42 45 45 46 44 44 40 39 43 44 47 49 48 49 49 48 48 47 46 44 42 40 40 39 39 39
41 41 42 44 47 44 43 41 44 43 45 45 45 46 47 47 48 47 46 45 43 41 40 39 39 38 39
38 40 42 42 43 45 45 44 42 40 45 42 41 42 45 46 48 47 46 44 43 41 40 39 39 38 41
39 40 41 42 44 43 41 41 38 36 41 37 37 37 40 41 46 47 46 44 43 41 40 39 38 39 40
31 33 36 38 42 42 42 40 41 34 37 39 34 34 34 35 39 45 44 44 43 42 40 39 38 38 38
29 31 32 35 38 40 42 42 40 40 38 39 35 34 34 31 33 39 41 42 41 40 40 39 40 38 36
29 30 31 31 34 37 39 40 41 40 39 40 34 38 34 31 30 32 37 39 38 37 37 39 39 38 38
26 27 30 34 34 36 35 35 34 35 37 38 37 36 36 34 31 32 33 34 36 37 37 35 35 35 32
26 28 33 33 33 34 35 34 34 33 33 34 35 36 35 34 33 32 34 32 35 36 35 34 34 34 34
27 28 29 30 32 34 33 34 33 33 31 31 33 33 34 34 32 32 32 32 35 35 34 33 32 33 33
27 27 28 29 31 32 33 32 32 32 30 29 31 31 32 32 34 32 32 32 34 34 33 32 31 32 31
27 28 27 29 31 30 31 32 32 32 31 29 31 32 30 28 29 34 32 32 33 33 32 31 31 31 29

GFSFLT2_sfc_dewp_108.txt.gz
Dewpoint
53 55 54 56 55 56 56 57 57 56 57 57 57 57 57 58 59 60 60 59 58 57 56 55 54 53 52
51 51 52 52 52 52 51 52 54 54 56 56 56 56 56 57 58 58 57 57 56 56 55 54 53 52 51
47 49 49 47 47 47 48 48 49 51 53 54 55 55 55 56 57 56 55 55 54 53 53 53 52 51 50
44 46 46 45 46 45 45 45 46 48 50 52 54 55 55 56 55 53 52 52 52 52 51 50 49 48 47
40 41 42 44 44 45 44 45 45 46 47 50 51 52 53 53 51 50 51 51 51 50 49 47 45 44 43
36 38 39 42 44 44 44 41 40 42 44 46 50 49 51 52 51 50 50 50 49 48 47 45 43 42 42
35 36 37 40 40 39 41 41 42 44 44 43 45 46 49 50 50 49 49 48 48 46 45 44 44 42 41
35 36 37 38 39 40 41 41 42 41 44 40 41 42 45 46 49 49 48 47 46 45 44 44 43 42 40
35 34 34 35 35 37 36 37 37 38 40 40 38 39 40 41 46 49 48 47 46 45 44 43 42 40 39
29 30 31 32 36 36 36 35 35 37 37 38 35 35 35 36 40 46 47 47 46 45 44 43 42 38 38
28 28 29 31 32 33 34 36 36 35 39 39 35 34 34 32 34 39 45 44 44 44 44 43 41 39 36
26 26 27 28 30 33 33 33 36 36 39 40 34 38 34 31 32 33 38 42 42 41 41 41 41 41 38
24 25 26 28 31 31 31 31 33 35 37 37 37 36 38 38 32 32 35 37 40 39 38 38 38 36 35
26 26 26 26 30 30 30 32 33 33 34 34 36 36 36 36 35 32 36 34 37 37 37 37 36 36 34
26 26 26 26 26 26 30 31 31 32 33 32 33 35 37 34 34 34 35 34 36 36 36 35 35 35 34
26 25 25 26 26 25 30 30 30 31 32 31 31 31 31 32 36 35 34 34 35 35 35 33 32 34 34
25 26 25 26 26 26 27 29 30 31 32 32 31 32 30 29 30 35 34 33 32 32 33 33 32 32 33

GFSFLT2_sfc_dewp_111.txt.gz
Dewpoint
51 51 54 56 56 57 57 57 58 56 58 57 57 57 57 57 58 58 59 60 62 62 61 59 57 56 55
47 48 49 50 50 53 54 54 56 55 56 56 56 56 56 56 56 56 57 58 60 60 59 58 57 56 55
43 46 48 47 47 47 48 48 50 51 53 54 54 55 55 55 55 55 55 56 57 57 57 56 56 56 55
39 41 44 45 45 45 45 46 47 48 50 51 52 52 54 54 54 53 53 55 56 56 55 54 54 54 54
36 37 39 39 42 44 44 45 45 46 46 48 50 52 53 54 53 52 53 54 55 54 54 53 52 52 52
34 34 34 38 39 38 39 40 40 44 44 45 49 49 51 52 52 52 52 52 52 52 52 52 50 49 49
32 33 35 35 37 35 35 37 38 41 43 42 44 45 48 50 51 51 51 51 51 51 50 49 48 47 46
31 33 33 34 35 35 36 37 37 38 43 39 41 42 43 46 50 50 50 50 50 49 49 48 46 45 45
32 33 33 33 31 31 30 31 30 32 38 40 37 39 40 42 46 49 49 49 49 49 48 46 45 44 43
29 29 30 30 32 32 31 32 30 31 32 35 36 36 36 37 39 45 48 49 48 48 47 46 45 42 39
29 27 27 28 29 31 31 32 32 31 34 35 34 34 34 34 35 38 44 45 46 46 46 45 44 41 38
29 27 25 25 26 26 29 30 31 31 33 33 33 35 34 33 34 34 38 43 44 43 43 44 44 43 40
26 26 25 26 26 27 29 29 28 29 30 32 33 34 36 36 34 33 35 37 41 41 41 41 41 40 39
29 29 27 22 26 30 26 26 27 28 32 34 34 35 34 36 37 33 36 35 38 39 39 40 40 39 39
28 28 27 26 26 25 26 26 26 28 29 33 33 34 35 35 34 36 35 34 37 38 37 36 37 38 37
26 25 24 23 24 22 24 26 26 27 29 32 33 31 31 33 37 35 35 36 35 37 37 36 35 36 36
26 27 25 22 24 19 20 21 23 26 29 32 31 31 29 28 32 37 34 35 35 35 36 36 35 34 36

GFSFLT2_sfc_dewp_117.txt.gz
Dewpoint
36 38 39 41 43 44 48 49 50 51 53 56 57 57 58 58 58 59 59 60 61 62 63 63 63 62 62
33 35 36 39 39 41 45 47 45 47 50 52 53 56 56 56 57 57 57 58 59 59 60 61 62 62 62
31 33 36 37 37 39 38 39 40 43 49 51 51 52 52 54 56 56 55 55 56 56 57 58 59 60 61
30 30 33 34 37 36 35 37 37 39 44 44 45 47 50 51 52 51 52 53 54 55 55 55 56 58 59
28 29 29 31 32 34 32 33 34 42 36 36 38 41 46 48 49 50 51 51 52 53 54 55 54 55 57
27 27 28 30 31 31 31 29 27 37 32 32 36 38 40 43 47 49 49 50 51 52 52 53 53 54 55
28 27 28 29 30 29 28 29 28 30 33 30 34 37 41 44 45 46 48 49 50 50 51 51 52 53 54
29 29 30 30 31 32 30 29 30 31 33 29 32 32 35 40 41 44 46 47 48 49 50 51 51 52 53
31 32 32 32 33 31 27 26 25 25 29 31 31 32 35 37 40 42 43 45 47 49 50 50 51 51 51
27 29 31 31 32 30 28 24 26 24 30 29 29 29 27 33 35 38 39 41 44 48 49 50 50 51 50
26 27 27 29 28 28 27 25 21 22 28 28 27 26 27 27 30 31 36 36 39 44 49 49 48 47 45
25 25 25 26 26 26 26 26 25 26 28 28 27 23 24 24 24 27 29 33 37 40 43 47 48 47 46
24 25 25 26 27 25 26 27 26 27 28 25 23 26 24 26 25 27 28 31 33 36 38 41 42 41 40
24 24 25 23 25 26 23 25 21 24 25 26 25 26 27 29 29 27 29 29 32 34 36 38 40 40 41
24 24 23 23 24 25 24 22 20 19 21 22 24 26 28 31 29 30 29 30 31 33 36 35 36 39 40
24 22 21 21 22 24 20 22 20 20 19 21 21 21 22 30 33 30 30 31 31 32 35 35 36 37 39
19 20 20 21 23 22 21 21 21 16 18 20 22 23 21 21 23 34 30 30 30 31 33 34 35 35 38

GFSFLT2_sfc_dewp_123.txt.gz
Dewpoint
34 34 32 33 32 33 36 34 37 37 37 40 43 42 44 45 47 48 49 53 59 61 62 62 63 63 63
32 34 33 32 32 32 32 31 33 34 36 41 37 37 38 41 44 45 47 49 51 55 59 61 61 62 63
30 32 32 32 32 31 30 32 31 32 34 34 34 35 37 38 40 43 44 46 47 50 54 58 60 61 60
29 29 30 29 30 29 29 30 32 29 32 32 33 34 35 38 39 39 41 42 45 48 49 51 56 58 59
27 27 26 26 26 28 29 30 31 31 31 32 32 32 33 37 38 39 40 42 43 46 47 49 51 56 58
27 25 25 26 27 28 28 26 26 30 30 30 31 31 33 36 35 36 42 43 44 45 47 48 49 50 53
26 25 26 26 28 29 28 27 27 28 29 27 28 30 33 29 31 33 39 38 37 40 43 45 47 49 50
28 28 29 29 28 27 26 27 27 27 28 26 27 29 28 30 31 35 33 34 35 36 37 40 42 46 49
30 31 31 30 29 27 25 24 23 24 26 27 27 27 28 29 29 30 30 30 33 34 34 36 43 45 47
26 27 28 26 27 27 27 24 23 22 24 26 26 26 24 25 28 28 28 28 30 32 34 37 37 41 44
24 24 23 24 25 26 26 27 25 23 26 28 28 26 25 25 23 26 27 27 27 30 32 33 38 41 43
19 20 22 24 25 27 27 28 28 27 29 29 28 27 26 25 23 24 26 27 30 30 32 34 33 36 40
19 21 23 25 26 26 26 26 27 28 27 30 29 28 27 24 24 25 25 26 29 32 32 32 33 34 37
21 21 22 23 23 24 23 22 23 24 27 28 28 28 26 26 25 24 26 25 27 29 31 32 33 35 37
22 21 20 21 21 22 21 21 22 22 24 26 26 26 27 27 24 25 25 26 29 30 31 31 33 33 35
22 23 21 21 21 21 22 22 22 21 21 23 24 23 24 25 26 25 25 28 29 30 30 30 30 33 36
24 23 23 22 21 20 20 21 21 19 21 24 22 21 20 20 21 23 26 26 27 27 31 31 31 32 34

GFSFLT2_sfc_dewp_126.txt.gz
Dewpoint
28 29 31 31 31 31 31 31 30 33 35 36 37 36 36 37 38 40 42 46 48 49 50 52 55 60 62
29 31 30 31 31 30 28 27 29 31 35 35 35 35 35 36 37 39 40 41 44 45 48 49 51 54 60
29 29 30 30 30 30 28 29 27 32 32 33 34 35 34 34 36 39 39 40 40 44 45 47 48 50 53
28 28 28 27 27 27 26 28 28 27 30 31 32 32 32 33 36 36 35 42 42 43 45 46 47 48 50
27 27 26 25 25 26 27 28 28 30 28 27 28 28 28 31 33 32 32 38 40 40 41 44 44 46 47
26 24 24 24 24 26 27 28 25 27 25 25 26 26 27 29 30 31 33 37 36 37 37 39 42 43 45
26 25 24 25 26 28 29 28 25 25 26 25 25 24 26 24 30 31 32 33 32 32 35 36 37 41 44
27 28 28 28 30 29 28 26 26 24 25 25 23 24 25 25 29 30 31 30 30 31 33 34 35 38 42
30 30 30 30 29 29 27 26 23 22 23 25 25 26 27 27 25 28 29 29 29 30 31 32 35 36 39
24 24 25 25 27 26 25 26 25 24 23 24 24 25 24 25 25 26 25 27 28 29 31 32 34 37 37
22 21 20 21 22 24 24 27 27 25 25 27 27 25 26 27 25 26 26 26 27 29 29 31 34 33 35
19 18 20 23 24 26 26 27 28 25 26 26 26 26 26 25 25 25 26 28 29 29 30 32 31 33 34
18 21 24 26 26 26 27 26 27 26 24 27 29 27 28 26 25 26 25 27 29 30 30 31 32 33 33
22 22 23 26 25 25 25 25 24 24 25 27 29 28 26 27 27 26 27 26 28 29 30 31 30 33 34
22 22 21 22 22 24 24 24 23 23 23 25 28 27 27 26 25 25 26 26 28 29 30 30 32 33 34
23 24 23 24 24 24 24 23 23 22 22 24 23 25 25 27 28 27 26 26 28 28 28 27 29 32 33
25 25 24 24 22 23 22 22 21 22 23 23 24 23 20 19 23 25 26 27 26 26 27 28 29 30 32